Regional Weather Roundup
Issued by NWS Sterling, VA

Home | Current Version | Previous Version | Text Only | Print | Product List | Glossary Off
Versions: 1 2 3 4 5 6 7 8 9 10 11 12 13 14 15 16 17 18 19 20 21 22 23 24 25 26 27 28 29 30 31 32 33 34 35 36 37 38 39 40 41 42 43 44 45 46 47 48 49 50

000
ASUS41 KLWX 042310
RWRLWX

REGIONAL WEATHER ROUNDUP
NATIONAL WEATHER SERVICE BALTIMORE MD/WASHINGTON DC
700 PM EDT SAT JUL 04 2015

Note: "FAIR" indicates few or no clouds below 12,000 feet
with no significant weather and/or obstructions to visibility.
 TC=TEMPERATURE CELSIUS

 * =Non NWS site. Station does not report precipitation (e.g. rain,
    snow, etc.), thunder, or fog.

DCZ001-MDZ009-015-VAZ040>042-051-053>054-050000-
WASHINGTON METRO

CITY           SKY/WX    TMP DP  RH WIND       PRES   REMARKS
WASHINGTON NAT CLOUDY    77  70  79 CALM      29.95R
DULLES         CLOUDY    75  69  81 NE3       29.94R
ANDREWS AFB    CLOUDY    73  73  99 E3        29.95R
FT BELVOIR     CLOUDY    74  71  92 SE5       29.95R
QUANTICO       PTSUNNY   76  70  82 CALM      29.95R
LEESBURG*      PTSUNNY   77  73  88 NE6       29.95S
MANASSAS*      MOSUNNY   75  72  88 NE3         N/A
GAITHERSBURG*  PTSUNNY   73  70  88 E6        29.99R

$$

MDZ006>007-011-014-050000-
BALTIMORE METRO

CITY           SKY/WX    TMP DP  RH WIND       PRES   REMARKS
BWI AIRPORT    CLOUDY    74  67  78 NE5       29.94R
MD SCIENCE CTR   N/A     75  67  76 MISG      29.95R
ANNAPOLIS      CLOUDY    75  70  84 N5        29.94R
FORT MEADE*    CLOUDY    72  68  88 NE3       29.97R

$$

MDZ012-015-019>023-050000-
MARYLAND EASTERN SHORE

CITY           SKY/WX    TMP DP  RH WIND       PRES   REMARKS
OCEAN CITY     CLOUDY    73  69  87 E7        29.95R
SALISBURY      LGT RAIN  70  66  87 S7        29.95R
BAY BRIDGE AP*   N/A     73  72  94 CALM      29.94R

$$

MDZ017>025-050000-
SOUTHERN MARYLAND

CITY           SKY/WX    TMP DP  RH WIND       PRES   REMARKS
PATUXENT RIVER TSTM      76  72  87 SE7       29.91R
ST INIGOES     NOT AVBL
LEONARDTOWN*   CLOUDY    72  63  73 W7G21     29.94R

$$

MDZ003>005-050000-
NORTH CENTRAL MARYLAND

CITY           SKY/WX    TMP DP  RH WIND       PRES   REMARKS
FREDERICK*     NOT AVBL
HAGERSTOWN APT SUNNY     75  65  70 N10       29.95S
WESTMINSTER*   CLOUDY    70  68  94 CALM      29.98R

$$

MDZ501>502-050000-
WESTERN MARYLAND

CITY           SKY/WX    TMP DP  RH WIND       PRES   REMARKS
OAKLAND*       MOSUNNY   68 N/A N/A CALM      30.07R
CUMBERLAND*    MOSUNNY   82  61  47 NW3       29.99R

$$

VAZ025>031-050000-
SHENANDOAH VALLEY

CITY           SKY/WX    TMP DP  RH WIND       PRES   REMARKS
WINCHESTER*    PTSUNNY   79  70  73 NE8       29.95S
FRONT ROYAL*   FAIR      77  70  78 CALM      29.94S
LURAY*         FAIR      81  68  65 CALM      29.95R
NEW MARKET*    FAIR      75  72  88 CALM      29.93S
STAUNTON*      PTSUNNY   82  65  57 N6        29.98R
WAYNESBORO*    FAIR      77  68  73 W3        29.98R

$$

WVZ021-048>050-054>055-050000-
EASTERN WEST VIRGINIA PANHANDLE

CITY           SKY/WX    TMP DP  RH WIND       PRES   REMARKS
MARTINSBURG    MOSUNNY   76  66  71 N9        29.96R
PETERSBURG*    PTSUNNY   80  59  48 NW5       29.97S

$$

VAZ036>039-050-050000-
CENTRAL FOOTHILLS

CITY           SKY/WX    TMP DP  RH WIND       PRES   REMARKS
CHARLOTTESVILL MOSUNNY   78  68  71 CALM      29.94R
CULPEPER*      PTSUNNY   74  70  88 CALM      29.95R
ORANGE*        PTSUNNY   75  70  83 CALM      29.96R
GORDONSVILLE*  FAIR      73  72  94 N3        29.94R
WARRENTON*     PTSUNNY   75  72  89 CALM      29.94R

$$

VAZ055>057-050000-
NORTH AND CENTRAL PIEDMONT

CITY           SKY/WX    TMP DP  RH WIND       PRES   REMARKS
FREDERICKSBRG* PTSUNNY   77  72  82 NE7       29.93R
STAFFORD*      PTSUNNY   73  69  87 CALM      29.99R

$$

NCZ024-NYZ072-PAZ021-071-VAZ022-071-050000-
OTHER REGIONAL OBSERVATIONS

CITY           SKY/WX    TMP DP  RH WIND       PRES   REMARKS
NEW YORK CITY  MOSUNNY   74  52  46 E6        29.97S
PHILADELPHIA   LGT RAIN  72  61  68 E7        29.96R
PITTSBURGH     MOSUNNY   78  54  43 NW12      29.99S
ROANOKE        PTSUNNY   80  65  59 NW3       30.00R
RICHMOND       TSTM      70  66  88 S5        29.96R FOG
RALEIGH        PTSUNNY   84  69  60 SW12G18   29.97S

$$

ANZ530>537-050000-
MARINE OBSERVATIONS

STATION/POSITION TIME  TEMP    WIND        PRES
                       AIR SEA DIR/SP/G
                 (UTC) (F)     (DEG/KT/KT) (MB)
THOMAS PT LIGHT  NOT AVBL
BALT KEY BRIDGE  2200   73      40/  5/  6 1013.3R
COVE POINT       2200   77     120/  3/  4 1013.4R
LEWISETTA        2200   78 80  140/  9/ 10 1012.2F
SOLOMONS ISLAND  2200      80                N/A
PINEY POINT      2200          150/  9/  9   N/A

$$




USA.gov is the U.S. government's official web portal to all federal, state and local government web resources and services.